Bookmark and Share
Track history (hours):
 

Taiheimaru

Last reported at 2014-Apr-23 08:32 UTC. Time now 2014-Apr-23 09:15 UTC.
Position N 34°37' E 135°09'.

Length 78 m.

Type: Cargo ship. MMSI: 431400082.

NotesDate/timePositionNaut miles runAvg speedWind from/ knotsBaromVisibWave heightAir tempDewpointWater temp
2014-Apr-23 08:32N 34°37' E 135°09'1111.3
2014-Apr-23 07:33N 34°39' E 135°22'1 1.0
2014-Apr-23 06:33N 34°38' E 135°23'7 6.5
2014-Apr-23 05:29N 34°40' E 135°14'2 1.8
2014-Apr-23 04:32N 34°38' E 135°14'16 0.4
2014-Apr-21 09:18N 34°36' E 134°55'7 8.2
2014-Apr-21 08:28N 34°36' E 135°03'1010.9
2014-Apr-21 07:31N 34°37' E 135°15'8 7.5
2014-Apr-21 06:27N 34°38' E 135°25'5 5.1
2014-Apr-21 05:33N 34°39' E 135°20'4 4.0
2014-Apr-21 04:28N 34°39' E 135°15'1 1.3
2014-Apr-21 03:33N 34°40' E 135°13'0 0.2
2014-Apr-21 02:32N 34°40' E 135°13'0 0.0
2014-Apr-21 01:30N 34°40' E 135°13'0 0.0
2014-Apr-21 00:22N 34°40' E 135°13'0 0.0
2014-Apr-20 23:32N 34°40' E 135°13'0 0.0
2014-Apr-20 22:26N 34°40' E 135°13'0 0.0
2014-Apr-20 21:26N 34°40' E 135°13'0 0.0
2014-Apr-20 20:26N 34°40' E 135°13'0 0.0
2014-Apr-20 19:32N 34°40' E 135°13'0 0.0
2014-Apr-20 18:21N 34°40' E 135°13'0 0.0
2014-Apr-20 17:29N 34°40' E 135°13'0 0.0
2014-Apr-20 16:32N 34°40' E 135°13'0 0.0
2014-Apr-20 15:30N 34°40' E 135°13'0 0.0
2014-Apr-20 14:27N 34°40' E 135°13'0 0.0
2014-Apr-20 13:33N 34°40' E 135°13'0 0.0
2014-Apr-20 12:24N 34°40' E 135°13'0 0.0
2014-Apr-20 11:30N 34°40' E 135°13'0 0.0
2014-Apr-20 10:27N 34°40' E 135°13'0 0.0
2014-Apr-20 09:33N 34°40' E 135°13'0 0.0
2014-Apr-20 08:29N 34°40' E 135°13'0 0.0
2014-Apr-20 07:29N 34°40' E 135°13'2 2.4
2014-Apr-20 06:31N 34°38' E 135°15'15 0.3
2014-Apr-18 09:21N 34°37' E 134°57'8 9.2
2014-Apr-18 08:32N 34°36' E 135°06'7 7.3
2014-Apr-18 07:30N 34°39' E 135°15'0 0.0
2014-Apr-18 06:18N 34°39' E 135°15'0 0.0
2014-Apr-18 05:33N 34°39' E 135°15'1 0.8
2014-Apr-18 04:30N 34°38' E 135°15'0 0.0
2014-Apr-18 03:25N 34°38' E 135°15'6 6.8
2014-Apr-18 02:31N 34°33' E 135°13'2010.2
2014-Apr-18 00:33N 34°13' E 135°06'2 1.7
2014-Apr-17 23:24N 34°12' E 135°09'3 3.6
2014-Apr-17 22:33N 34°13' E 135°05'10 9.4
2014-Apr-17 21:30N 34°22' E 135°07'1212.6
2014-Apr-17 20:33N 34°33' E 135°13'8 7.0
2014-Apr-17 19:26N 34°41' E 135°12'0 0.0
2014-Apr-17 18:24N 34°41' E 135°12'0 0.0
2014-Apr-17 17:28N 34°41' E 135°12'0 0.0
2014-Apr-17 16:33N 34°41' E 135°12'0 0.0
2014-Apr-17 15:29N 34°41' E 135°12'0 0.0
2014-Apr-17 14:25N 34°41' E 135°12'0 0.0
2014-Apr-17 13:25N 34°41' E 135°12'0 0.0
2014-Apr-17 12:25N 34°41' E 135°12'0 0.0
2014-Apr-17 11:31N 34°41' E 135°12'0 0.0
2014-Apr-17 10:28N 34°41' E 135°12'0 0.0
2014-Apr-17 09:30N 34°41' E 135°12'0 0.0
2014-Apr-17 08:30N 34°41' E 135°12'0 0.0
2014-Apr-17 07:18N 34°41' E 135°12'0 0.0
2014-Apr-17 06:30N 34°41' E 135°12'0 0.0
2014-Apr-17 05:18N 34°41' E 135°12'0 0.0
2014-Apr-17 04:30N 34°41' E 135°12'0 0.0
2014-Apr-17 03:31N 34°41' E 135°12'0 0.0
2014-Apr-17 02:30N 34°41' E 135°12'0 0.0
2014-Apr-17 01:17N 34°41' E 135°12'0 0.0
2014-Apr-17 00:30N 34°41' E 135°12'0 0.0
2014-Apr-16 23:33N 34°41' E 135°12'0 0.0
2014-Apr-16 22:25N 34°41' E 135°12'0 0.0
2014-Apr-16 21:33N 34°41' E 135°12'0 0.0
2014-Apr-16 20:33N 34°41' E 135°12'0 0.0
2014-Apr-16 19:33N 34°41' E 135°12'0 0.0
2014-Apr-16 18:33N 34°41' E 135°12'0 0.0
2014-Apr-16 17:32N 34°41' E 135°12'0 0.0
2014-Apr-16 16:33N 34°41' E 135°12'0 0.0
2014-Apr-16 15:32N 34°41' E 135°12'0 0.0
2014-Apr-16 14:29N 34°41' E 135°12'0 0.0
2014-Apr-16 13:32N 34°41' E 135°12'0 0.0
2014-Apr-16 12:33N 34°41' E 135°12'0 0.0
2014-Apr-16 11:29N 34°41' E 135°12'0 0.0
2014-Apr-16 10:25N 34°41' E 135°12'0 0.0
2014-Apr-16 09:33N 34°41' E 135°12'0 0.0
2014-Apr-16 08:30N 34°41' E 135°12'0 0.0
2014-Apr-16 07:31N 34°41' E 135°12'0 0.0
2014-Apr-16 06:33N 34°41' E 135°12'0 0.0
2014-Apr-16 05:22N 34°41' E 135°12'0 0.0
2014-Apr-16 04:28N 34°41' E 135°12'0 0.0
2014-Apr-16 03:28N 34°41' E 135°12'0 0.0
2014-Apr-16 02:33N 34°41' E 135°12'2 2.0
2014-Apr-16 01:24N 34°39' E 135°14'0 0.0
2014-Apr-16 00:30N 34°39' E 135°14'1 1.2
2014-Apr-15 23:33N 34°38' E 135°15'0 0.0
2014-Apr-15 22:30N 34°38' E 135°15'0 0.0
2014-Apr-15 21:33N 34°38' E 135°15'0 0.1
2014-Apr-15 20:32N 34°38' E 135°15'1010.1
2014-Apr-15 19:32N 34°36' E 135°03'6 0.2
2014-Apr-14 07:30N 34°37' E 134°56'1010.8
2014-Apr-14 06:33N 34°37' E 135°09'6 5.5
2014-Apr-14 05:33N 34°39' E 135°15'3 0.4
2014-Apr-13 22:30N 34°41' E 135°13'0 0.0
2014-Apr-13 21:28N 34°41' E 135°13'0 0.0
2014-Apr-13 20:27N 34°41' E 135°13'0 0.0
2014-Apr-13 19:29N 34°41' E 135°13'0 0.0
2014-Apr-13 18:27N 34°41' E 135°13'0 0.0
2014-Apr-13 17:25N 34°41' E 135°13'0 0.0
2014-Apr-13 16:28N 34°41' E 135°13'0 0.0
2014-Apr-13 15:33N 34°41' E 135°13'0 0.0
2014-Apr-13 14:30N 34°41' E 135°13'0 0.0
2014-Apr-13 13:30N 34°41' E 135°13'0 0.0
2014-Apr-13 12:31N 34°41' E 135°13'0 0.0
2014-Apr-13 11:29N 34°41' E 135°13'0 0.0
2014-Apr-13 10:29N 34°41' E 135°13'0 0.0
2014-Apr-13 09:26N 34°41' E 135°13'  

Dump ship's entire track history

sailing weather and tide predictions

Taiheimaru — JM6135 — position and weather